Regional Weather Roundup
Issued by NWS Sterling, VA

Home | Current Version | Previous Version | Text Only | Print | Product List | Glossary Off
Versions: 1 2 3 4 5 6 7 8 9 10 11 12 13 14 15 16 17 18 19 20 21 22 23 24 25 26 27 28 29 30 31 32 33 34 35 36 37 38 39 40 41 42 43 44 45 46 47 48 49 50

000
ASUS41 KLWX 230411
RWRLWX

REGIONAL WEATHER ROUNDUP
NATIONAL WEATHER SERVICE BALTIMORE MD/WASHINGTON DC
1100 PM EST THU FEB 22 2018

Note: "FAIR" indicates few or no clouds below 12,000 feet
with no significant weather and/or obstructions to visibility.
 TC=TEMPERATURE CELSIUS

 * =Non NWS site. Station does not report precipitation (e.g. rain,
    snow, etc.), thunder, or fog.

DCZ001-MDZ009-015-VAZ040>042-051-053>054-230500-
WASHINGTON METRO

CITY           SKY/WX    TMP DP  RH WIND       PRES   REMARKS
WASHINGTON NAT CLOUDY    44  39  82 NE12      30.61R
DULLES         CLOUDY    42  40  92 E7        30.59S
ANDREWS AFB    CLOUDY    41  38  88 NE12      30.59R WCI  34
FT BELVOIR     CLOUDY    43  38  85 CALM      30.60R
QUANTICO       DRIZZLE   45  43  93 NE9       30.60S
COLLEGE PARK*  CLOUDY    41  37  84 E7        30.61S
LEESBURG*      CLOUDY    39  39 100 E6        30.61S WCI  35
MANASSAS*      CLOUDY    44  40  85 NE10      30.59S
GAITHERSBURG*  CLOUDY    40  37  89 E6        30.59F

$$

MDZ006>007-011-014-230500-
BALTIMORE METRO

CITY           SKY/WX    TMP DP  RH WIND       PRES   REMARKS
BWI AIRPORT    CLOUDY    42  40  92 E7        30.62R
MD SCIENCE CTR   N/A     44  39  82 MISG      30.62R
MARTIN STATE   CLOUDY    43  39  87 CALM      30.64S
ANNAPOLIS      CLOUDY    44  40  85 NE6       30.62R
FORT MEADE*    CLOUDY    41  37  87 NE3       30.64S

$$

MDZ012-015-019>023-230500-
MARYLAND EASTERN SHORE

CITY           SKY/WX    TMP DP  RH WIND       PRES   REMARKS
OCEAN CITY     LGT RAIN  42  42 100 NE13      30.57R
SALISBURY      CLOUDY    41  40  96 NE12G21   30.57R WCI  34
BAY BRIDGE AP* CLOUDY    41  37  87 NE5       30.62R
CAMBRIDGE*     CLOUDY    41  39  93 NE10      30.60R WCI  35
EASTON*        CLOUDY    42  37  83 E8        30.64S

$$

MDZ017>025-230500-
SOUTHERN MARYLAND

CITY           SKY/WX    TMP DP  RH WIND       PRES   REMARKS
PATUXENT RIVER DRIZZLE   42  41  96 E13       30.57S
ST INIGOES     NOT AVBL
LEONARDTOWN*   CLOUDY    41  39  93 NE3       30.60S

$$

MDZ003>005-230500-
NORTH CENTRAL MARYLAND

CITY           SKY/WX    TMP DP  RH WIND       PRES   REMARKS
FREDERICK*     CLOUDY    41  41 100 N6        30.64S FOG
HAGERSTOWN APT CLOUDY    40  39  97 NE5       30.58F FOG
WESTMINSTER*   CLOUDY    39  39 100 E3        30.60R FOG

$$

MDZ501>502-230500-
WESTERN MARYLAND

CITY           SKY/WX    TMP DP  RH WIND       PRES   REMARKS
OAKLAND*       CLOUDY    32  32 100 SE14G21   30.44S VSB 1/4 WCI  22
CUMBERLAND*    CLOUDY    41  39  93 CALM      30.60F

$$

VAZ025>031-230500-
SHENANDOAH VALLEY

CITY           SKY/WX    TMP DP  RH WIND       PRES   REMARKS
WINCHESTER*    CLOUDY    37  37 100 E3        30.58F FOG
FRONT ROYAL*   CLOUDY    39  39 100 N3        30.56F
LURAY*         CLOUDY    41  41 100 N7        30.55F FOG
NEW MARKET*    CLOUDY    40  39  97 NE7       30.54F
STAUNTON*      CLOUDY    42  40  93 N5        30.55S FOG
WAYNESBORO*    CLOUDY    42  42  99 N5        30.53S

$$

WVZ021-048>050-054>055-230500-
EASTERN WEST VIRGINIA PANHANDLE

CITY           SKY/WX    TMP DP  RH WIND       PRES   REMARKS
MARTINSBURG    CLOUDY    40  39  97 NE3       30.57F FOG
PETERSBURG*    CLOUDY    40  39  95 CALM      30.55S

$$

VAZ036>039-050-230500-
CENTRAL FOOTHILLS

CITY           SKY/WX    TMP DP  RH WIND       PRES   REMARKS
CHARLOTTESVILL CLOUDY    46  43  89 NE10      30.55R FOG
CULPEPER*      CLOUDY    45  43  91 NE6       30.59R
ORANGE*        CLOUDY    43  41  93 CALM      30.56S FOG
GORDONSVILLE*  CLOUDY    44  44 100 NE7       30.55R FOG
WARRENTON*     CLOUDY    45  41  85 NE6       30.58R

$$

VAZ055>057-230500-
NORTH AND CENTRAL PIEDMONT

CITY           SKY/WX    TMP DP  RH WIND       PRES   REMARKS
FREDERICKSBRG* CLOUDY    45  45 100 NE8       30.58R
STAFFORD*      CLOUDY    45  45 100 NE6       30.63R

$$

NCZ024-NYZ072-PAZ021-071-VAZ022-071-230500-
OTHER REGIONAL OBSERVATIONS

CITY           SKY/WX    TMP DP  RH WIND       PRES   REMARKS
PHILADELPHIA   CLOUDY    39  37  92 NE10      30.65R WCI  32
PITTSBURGH     CLOUDY    40  39  97 E6        30.44F
ROANOKE        CLOUDY    57  51  80 S12       30.47S
RICHMOND       CLOUDY    47  45  93 NE7       30.55R
RALEIGH        FAIR      66  60  81 CALM      30.44R

$$

ANZ530>537-230500-
MARINE OBSERVATIONS

STATION/POSITION TIME  TEMP    WIND        PRES
                       AIR SEA DIR/SP/G
                 (UTC) (F)     (DEG/KT/KT) (MB)
THOMAS PT LIGHT  0400   41 42   80/  6/  7   N/A
BALT KEY BRIDGE  0348   42      70/  8/ 10 1037.1R
COVE POINT       0348   41      90/ 14/ 17 1036.3R
LEWISETTA        0348   44 49   80/ 10/ 12 1035.3R
SOLOMONS ISLAND  0348   42 46   50/ 10/ 14 1035.3R
PINEY POINT      0342           80/  9/ 12   N/A

$$




USA.gov is the U.S. government's official web portal to all federal, state and local government web resources and services.